ONEWEB-0023 (45136 NORAD) Tracking and Keplerian Element Data

This shows tracking and keplerian element data for the satellite.

Feedback or suggestion? Click here.




ElementValue
Catalog45136
NameONEWEB-0023
Epoch Orbit3869
Epoch Day297.91667824
Epoch Year2020
RAAN86.2844
Inclination87.9188
Eccentricity0.0022052
Argument of Perigee126.4048
Mean Anonmoly190.7461
Mean Motion13.3587705
Decay Rate6.57E-05
L11 45136U 20008F 20297.91667824 .00006570 00000-0 12820-1 0 9994
L22 45136 87.9188 86.2844 0022052 126.4048 190.7461 13.35877050 38693

Live tracking and technical data element details for ONEWEB-0023 (NORAD 45136). ONEWEB-0023 can be tracked NOW for your location showing map with azimuth and elevation plus other details from your city location.

Track the satellite on the map from your city or location and see movement details for azimuth, elevation, latitude, longitude, range, height, and movement on the map or in text.







IsCatalogInMostPopularTable: catalog: 45136, numindb: 50
Update: records affected: 1



GetName: 45136 ONEWEB-0023

Hit Count: updated at: Sat, 24 Oct 2020 23:22:47 GMT